Home   Weather   Itabuna   Past weeks

Flag for Brazil Past Weather in Itabuna, Bahia, Brazil — Yesterday and Last 2 Weeks

Now
81 °F

Broken clouds.


Feels Like: 84 °F
Forecast: 63 / 85 °F
Wind: 15 mph from East

Location: Salvador Aeroporto

Current Time: Sep 25, 2016 at 12:46:33 PM

Latest Report: Sep 25, 2016 at 12:00 PM


Visibility: N/A

Pressure: 29.98 "Hg

Humidity: 70%

Dew Point: 70 °F

Location of ItabunaLocation

Past Weather in Itabuna — Graph

°F

Itabuna Temperature Yesterday

Maximum temperature yesterday: 81 °F (at 12:00 PM)
Minimum temperature yesterday: 72 °F (at 5:00 AM)
Average temperature yesterday: 76 °F

High & Low Weather Summary for the Past Weeks

 TemperatureHumidityPressure
High84 °F (Sep 16, 12:00 PM)94% (Sep 14, 12:00 AM)30.18 "Hg (Sep 14, 12:00 AM)
Low68 °F (Sep 20, 6:00 AM)48% (Sep 19, 10:00 AM)29.92 "Hg (Sep 20, 5:00 PM)
Average77 °F74%30.04 "Hg
* Reported Sep 10 11:00 AM — Sep 25 11:00 AM, Itabuna, Weather by CustomWeather, © 2016

Note: Actual official high and low records may vary slightly from our data, if they occured in-between our weather recording intervals... More about our weather records

Advertising

Itabuna Weather History for the Previous 24 Hours

Scroll right to see more
 ConditionsComfort  
Time TempWeatherWind HumidityBarometerVisibility
11:00 AM
Sun, Sep 25
82 °FPartly sunny.15 mph66%29.98 "HgN/A
10:00 AM81 °FScattered showers. Partly sunny.13 mph74%N/AN/A
9:00 AM79 °FPartly sunny.6 mph79%30.01 "HgN/A
8:00 AM77 °FPartly sunny.3 mph83%30.01 "HgN/A
6:00 AM73 °FLight rain. Broken clouds.3 mph94%29.98 "Hg4 mi
5:00 AM73 °FPartly cloudy.5 mph89%29.95 "HgN/A
4:00 AM75 °FPartly cloudy.10 mph89%29.95 "HgN/A
3:00 AM75 °FPartly cloudy.8 mph83%29.95 "HgN/A
2:00 AM75 °FPartly cloudy.10 mph83%29.98 "HgN/A
1:00 AM75 °FPartly cloudy.8 mph83%29.98 "HgN/A
12:00 AM75 °FPassing clouds.9 mph78%30.01 "HgN/A
11:00 PM
Sat, Sep 24
73 °FPartly cloudy.8 mph89%30.04 "HgN/A
10:00 PM73 °FPassing clouds.8 mph89%30.07 "HgN/A
9:00 PM79 °FPartly cloudy.12 mph74%30.07 "HgN/A
8:00 PM73 °FPassing clouds.8 mph89%30.07 "HgN/A
7:00 PM73 °FPassing clouds.7 mph94%30.04 "HgN/A
6:00 PM73 °FPassing clouds.5 mph89%30.04 "Hg5 mi
5:00 PM73 °FLight rain. Fog.3 mph94%30.04 "Hg2 mi
4:04 PM73 °FLight rain. Fog.8 mph89%30.04 "Hg2 mi
4:00 PM75 °FLight rain. Fog.12 mph89%30.01 "Hg3 mi
3:00 PM79 °FPartly sunny.10 mph74%30.01 "HgN/A
2:00 PM79 °FPartly sunny.10 mph74%30.01 "HgN/A
1:00 PM77 °FLight rain. Partly sunny.12 mph83%N/A4 mi
12:00 PM81 °FBroken clouds.10 mph74%30.04 "HgN/A
Weather by CustomWeather, © 2016

See weather overviewHow to use our weather pages